Location: Carrer del Canonge
(41.4901°N, 2.2931°E)
Time: 13:54:48
(UTC+00:00)

Cosmos 2112 Rocket - Pass Details

Date: 18 September 2020
Orbit: 756 x 787 km, 74.1° (Epoch: 28 October)

Event Time Altitude Azimuth Distance (km) Brightness Sun altitude
Rises 18:50:20 0° 337° (NNW) 3,224 7.8 -11.2°
Reaches altitude 10° 18:52:43 10° 334° (NNW) 2,297 7.0 -11.7°
Maximum altitude 18:57:51 63° 255° (WSW) 852 4.5 -12.6°
Drops below altitude 10° 19:03:00 10° 175° (S) 2,298 6.3 -13.5°
Sets 19:05:23 0° 172° (S) 3,225 7.0 -14.0°
